FREGAT R/B (52985 NORAD) Tracking and Keplerian Element Data

This shows tracking and keplerian element data for the satellite.

Feedback or suggestion? Click here.




ElementValue
Catalog52985
NameFREGAT R/B
Epoch Orbit5
Epoch Day190.97970655
Epoch Year2022
RAAN4.7307
Inclination64.8336
Eccentricity0.0079053
Argument of Perigee120.9534
Mean Anonmoly338.7545
Mean Motion2.08816198
Decay Rate-4E-07
L11 52985U 22075B 22190.97970655 -.00000040 00000+0 10000-3 0 9995
L22 52985 64.8336 4.7307 0079053 120.9534 338.7545 2.08816198 53

Live tracking and technical data element details for FREGAT R/B (NORAD 52985). FREGAT R/B can be tracked NOW for your location showing map with azimuth and elevation plus other details from your city location.

Track the satellite on the map from your city or location and see movement details for azimuth, elevation, latitude, longitude, range, height, and movement on the map or in text.







IsCatalogInMostPopularTable: catalog: 52985, numindb: 7
Update: records affected: 1



GetName: 52985 FREGAT R/B

Hit Count: updated at: Thu, 06 Oct 2022 05:01:42 GMT